Location: Peebles
(55.6412°N, 3.1714°W)
Time: 09:45:45
(UTC+01:00)

FENGYUN 1C DEB - Pass Details

Date: 12 July 2022
Orbit: 749 x 887 km, 98.1° (Epoch: 08 August)

Event Time Altitude Azimuth Distance (km) Brightness Sun altitude
Rises 01:54:08 0° 18° (NNE) 3,499 ? -12.0°
Reaches altitude 10° 01:56:42 10° 25° (NNE) 2,546 ? -11.9°
Maximum altitude 02:02:05 43° 96° (E) 1,207 ? -11.8°
Enters shadow 02:06:51 12° 165° (SSE) 2,306 ? -11.7°
